N222HL KMKE-KCMH

Flight info

Callsign N222HL
Flight time 0h 59m
Altitude 37000
Route SQUIB SMUUV FBC DUBLN1
Aircraft CL60/M-SBDE1E2E3FGHIJ1J4J5J7M3RWXYZ/LB1V1D1

Departure

Time 2026-05-08 23:34
Airport General Mitchell International Airport (KMKE)

Arrival

Time 2026-05-09 00:33
Airport John Glenn Columbus International Airport (KCMH)
Time Latitude Longitude Altitude Speed Heading
2026-05-08 23:11 42.95812 -87.89711 681 ft 0 kts 270°
2026-05-08 23:30 42.95805 -87.89728 681 ft 4 kts 172°
2026-05-08 23:31 42.95778 -87.89722 680 ft 6 kts 169°
2026-05-08 23:31 42.95746 -87.89671 680 ft 8 kts 96°
2026-05-08 23:31 42.95745 -87.89578 681 ft 10 kts 91°
2026-05-08 23:31 42.95744 -87.89488 682 ft 6 kts 91°
2026-05-08 23:32 42.95743 -87.89443 682 ft 2 kts 91°
2026-05-08 23:32 42.95743 -87.89442 682 ft 0 kts 91°
2026-05-08 23:33 42.95734 -87.89336 683 ft 15 kts 123°
2026-05-08 23:34 42.95652 -87.89322 681 ft 14 kts 185°
2026-05-08 23:34 42.95349 -87.89369 677 ft 91 kts 187°
2026-05-08 23:34 42.94437 -87.89529 905 ft 160 kts 186°
2026-05-08 23:34 42.93264 -87.89713 1789 ft 182 kts 187°
2026-05-08 23:35 42.91974 -87.89893 2990 ft 198 kts 188°
2026-05-08 23:35 42.90627 -87.90044 4193 ft 206 kts 188°
2026-05-08 23:35 42.89183 -87.90010 5111 ft 222 kts 172°
2026-05-08 23:35 42.87694 -87.89080 6172 ft 253 kts 143°
2026-05-08 23:36 42.86669 -87.87084 7326 ft 276 kts 112°
2026-05-08 23:36 42.86172 -87.84517 8527 ft 291 kts 100°
2026-05-08 23:36 42.85960 -87.81750 9759 ft 303 kts 90°
2026-05-08 23:36 42.86048 -87.78876 11023 ft 311 kts 82°
2026-05-08 23:37 42.86284 -87.75971 12229 ft 319 kts 79°
2026-05-08 23:37 42.86553 -87.72931 13300 ft 332 kts 79°
2026-05-08 23:37 42.86824 -87.69798 14433 ft 339 kts 79°
2026-05-08 23:37 42.87096 -87.66618 15544 ft 346 kts 79°
2026-05-08 23:38 42.87376 -87.63333 16599 ft 353 kts 79°
2026-05-08 23:38 42.87656 -87.60008 17585 ft 360 kts 79°
2026-05-08 23:38 42.87940 -87.56618 18567 ft 366 kts 80°
2026-05-08 23:38 42.88226 -87.53180 19457 ft 373 kts 80°
2026-05-08 23:39 42.88518 -87.49640 20344 ft 380 kts 80°
2026-05-08 23:39 42.88813 -87.46053 21182 ft 387 kts 80°
2026-05-08 23:39 42.89112 -87.42401 21947 ft 394 kts 80°
2026-05-08 23:39 42.89414 -87.38679 22742 ft 399 kts 81°
2026-05-08 23:40 42.89722 -87.34875 23490 ft 406 kts 81°
2026-05-08 23:40 42.90030 -87.31040 24237 ft 411 kts 82°
2026-05-08 23:40 42.90342 -87.27135 24893 ft 418 kts 82°
2026-05-08 23:40 42.90658 -87.23172 25509 ft 425 kts 82°
2026-05-08 23:41 42.90978 -87.19133 26103 ft 431 kts 82°
2026-05-08 23:41 42.91300 -87.15035 26684 ft 438 kts 82°
2026-05-08 23:41 42.91565 -87.10889 27234 ft 444 kts 89°
2026-05-08 23:41 42.91232 -87.06698 27794 ft 446 kts 107°
2026-05-08 23:42 42.90109 -87.02760 28333 ft 442 kts 125°
2026-05-08 23:42 42.88482 -86.99227 28808 ft 444 kts 130°
2026-05-08 23:42 42.86741 -86.95600 29357 ft 448 kts 130°
2026-05-08 23:42 42.85014 -86.91988 29896 ft 451 kts 130°
2026-05-08 23:43 42.83296 -86.88399 30417 ft 454 kts 130°
2026-05-08 23:43 42.81553 -86.84766 30820 ft 459 kts 130°
2026-05-08 23:43 42.79784 -86.81080 31270 ft 463 kts 130°
2026-05-08 23:43 42.77999 -86.77365 31677 ft 467 kts 130°
2026-05-08 23:44 42.76222 -86.73669 32140 ft 471 kts 130°
2026-05-08 23:44 42.74414 -86.69911 32644 ft 474 kts 130°
2026-05-08 23:44 42.72614 -86.66177 33107 ft 476 kts 130°
2026-05-08 23:44 42.70783 -86.62383 33506 ft 481 kts 130°
2026-05-08 23:45 42.68944 -86.58576 33920 ft 484 kts 130°
2026-05-08 23:45 42.67102 -86.54765 34394 ft 483 kts 130°
2026-05-08 23:45 42.65255 -86.50944 34858 ft 481 kts 130°
2026-05-08 23:45 42.63428 -86.47173 35248 ft 480 kts 130°
2026-05-08 23:46 42.61598 -86.43399 35659 ft 476 kts 130°
2026-05-08 23:46 42.59773 -86.39641 36011 ft 475 kts 130°
2026-05-08 23:46 42.57958 -86.35909 36356 ft 473 kts 129°
2026-05-08 23:46 42.56135 -86.32166 36657 ft 473 kts 130°
2026-05-08 23:47 42.54322 -86.28453 36761 ft 479 kts 130°
2026-05-08 23:47 42.52434 -86.24596 36801 ft 488 kts 130°
2026-05-08 23:47 42.48623 -86.16820 36808 ft 504 kts 130°
2026-05-08 23:48 42.44454 -86.09114 36806 ft 511 kts 137°
2026-05-08 23:48 42.39871 -86.01677 36801 ft 518 kts 136°
2026-05-08 23:49 42.35259 -85.94191 36811 ft 518 kts 136°
2026-05-08 23:49 42.30621 -85.86685 36825 ft 527 kts 136°
2026-05-08 23:50 42.25910 -85.79075 36825 ft 532 kts 136°
2026-05-08 23:50 42.21159 -85.71414 36836 ft 534 kts 136°
2026-05-08 23:51 42.16358 -85.63692 36835 ft 534 kts 136°
2026-05-08 23:51 42.11605 -85.56065 36842 ft 534 kts 136°
2026-05-08 23:52 42.06799 -85.48373 36835 ft 535 kts 136°
2026-05-08 23:52 42.01995 -85.40704 36841 ft 535 kts 136°
2026-05-08 23:53 41.97187 -85.33048 36840 ft 535 kts 137°
2026-05-08 23:53 41.92380 -85.25413 36834 ft 534 kts 137°
2026-05-08 23:54 41.87529 -85.17728 36835 ft 535 kts 137°
2026-05-08 23:55 41.80342 -85.06380 36843 ft 535 kts 137°
2026-05-08 23:55 41.75466 -84.98704 36845 ft 535 kts 137°
2026-05-08 23:56 41.70636 -84.91121 36838 ft 536 kts 137°
2026-05-08 23:56 41.65804 -84.83553 36840 ft 537 kts 137°
2026-05-08 23:57 41.60958 -84.75982 36835 ft 537 kts 137°
2026-05-08 23:57 41.56094 -84.68399 36635 ft 531 kts 137°
2026-05-08 23:57 41.53725 -84.64710 36122 ft 527 kts 137°
2026-05-08 23:58 41.51344 -84.61011 35535 ft 526 kts 138°
2026-05-08 23:58 41.48952 -84.57300 34911 ft 525 kts 138°
2026-05-08 23:58 41.46568 -84.53606 34157 ft 525 kts 138°
2026-05-08 23:58 41.44181 -84.49912 33362 ft 524 kts 137°
2026-05-08 23:59 41.41830 -84.46276 32616 ft 520 kts 138°
2026-05-08 23:59 41.39471 -84.42632 31931 ft 516 kts 137°
2026-05-08 23:59 41.37138 -84.39032 31250 ft 511 kts 138°
2026-05-08 23:59 41.34843 -84.35494 30576 ft 507 kts 138°
2026-05-09 00:00 41.32525 -84.31926 29890 ft 501 kts 138°
2026-05-09 00:00 41.30257 -84.28438 29228 ft 496 kts 139°
2026-05-09 00:00 41.28023 -84.25007 28575 ft 490 kts 138°
2026-05-09 00:00 41.25817 -84.21622 27933 ft 484 kts 138°
2026-05-09 00:01 41.23620 -84.18258 27283 ft 479 kts 138°
2026-05-09 00:01 41.21463 -84.14957 26658 ft 473 kts 138°
2026-05-09 00:01 41.19323 -84.11687 26043 ft 468 kts 137°
2026-05-09 00:01 41.17212 -84.08464 25421 ft 462 kts 138°
2026-05-09 00:02 41.15105 -84.05250 24824 ft 456 kts 137°
2026-05-09 00:02 41.13028 -84.02085 24236 ft 451 kts 137°
2026-05-09 00:02 41.10988 -83.98981 23639 ft 446 kts 138°
2026-05-09 00:02 41.08963 -83.95905 23077 ft 441 kts 137°
2026-05-09 00:03 41.06965 -83.92870 22493 ft 436 kts 137°
2026-05-09 00:03 41.04971 -83.89847 21904 ft 431 kts 137°
2026-05-09 00:03 41.03011 -83.86876 21339 ft 425 kts 137°
2026-05-09 00:03 41.01100 -83.83984 20783 ft 420 kts 136°
2026-05-09 00:04 40.99189 -83.81094 20231 ft 414 kts 136°
2026-05-09 00:04 40.97310 -83.78254 19692 ft 409 kts 135°
2026-05-09 00:04 40.95365 -83.75526 19145 ft 398 kts 145°
2026-05-09 00:04 40.93168 -83.73445 18629 ft 387 kts 152°
2026-05-09 00:05 40.90977 -83.71498 18077 ft 377 kts 152°
2026-05-09 00:05 40.88834 -83.69583 17638 ft 364 kts 151°
2026-05-09 00:05 40.86745 -83.67720 17139 ft 354 kts 152°
2026-05-09 00:05 40.84737 -83.65930 16753 ft 342 kts 152°
2026-05-09 00:06 40.82765 -83.64177 16354 ft 346 kts 152°
2026-05-09 00:06 40.80761 -83.62402 15853 ft 345 kts 152°
2026-05-09 00:06 40.78777 -83.60640 15396 ft 343 kts 152°
2026-05-09 00:06 40.76834 -83.58916 14954 ft 339 kts 152°
2026-05-09 00:07 40.74886 -83.57188 14504 ft 337 kts 152°
2026-05-09 00:07 40.72941 -83.55466 14061 ft 335 kts 151°
2026-05-09 00:07 40.71016 -83.53760 13638 ft 332 kts 152°
2026-05-09 00:07 40.69106 -83.52070 13222 ft 329 kts 152°
2026-05-09 00:08 40.67212 -83.50394 12796 ft 327 kts 152°
2026-05-09 00:08 40.65329 -83.48730 12372 ft 324 kts 152°
2026-05-09 00:08 40.63464 -83.47083 11951 ft 322 kts 151°
2026-05-09 00:08 40.61607 -83.45443 11536 ft 319 kts 151°
2026-05-09 00:09 40.59774 -83.43826 11117 ft 316 kts 152°
2026-05-09 00:09 40.57978 -83.42243 10714 ft 313 kts 152°
2026-05-09 00:09 40.56165 -83.40646 10306 ft 310 kts 152°
2026-05-09 00:09 40.54337 -83.39160 9894 ft 303 kts 159°
2026-05-09 00:10 40.52473 -83.37974 9704 ft 290 kts 160°
2026-05-09 00:10 40.50646 -83.36826 9745 ft 294 kts 160°
2026-05-09 00:10 40.48782 -83.35660 9672 ft 301 kts 160°
2026-05-09 00:10 40.46893 -83.34471 9573 ft 297 kts 161°
2026-05-09 00:11 40.45026 -83.33298 9480 ft 299 kts 161°
2026-05-09 00:11 40.43136 -83.32109 9389 ft 297 kts 161°
2026-05-09 00:11 40.41273 -83.30938 9315 ft 297 kts 161°
2026-05-09 00:11 40.39416 -83.29770 9238 ft 295 kts 161°
2026-05-09 00:12 40.37550 -83.28598 9144 ft 294 kts 161°
2026-05-09 00:12 40.35722 -83.27449 9061 ft 293 kts 161°
2026-05-09 00:12 40.33840 -83.26641 8967 ft 276 kts 179°
2026-05-09 00:12 40.31945 -83.26408 8561 ft 271 kts 182°
2026-05-09 00:13 40.30058 -83.26241 8114 ft 269 kts 183°
2026-05-09 00:13 40.28182 -83.26088 7649 ft 269 kts 182°
2026-05-09 00:13 40.26309 -83.25935 7218 ft 266 kts 183°
2026-05-09 00:13 40.24491 -83.25795 6791 ft 263 kts 183°
2026-05-09 00:14 40.22666 -83.25663 6363 ft 261 kts 183°
2026-05-09 00:14 40.20869 -83.25530 6041 ft 255 kts 183°
2026-05-09 00:14 40.19090 -83.25400 5973 ft 258 kts 183°
2026-05-09 00:14 40.17292 -83.25279 5978 ft 259 kts 183°
2026-05-09 00:15 40.15494 -83.25159 5986 ft 259 kts 183°
2026-05-09 00:15 40.13691 -83.25041 5984 ft 259 kts 183°
2026-05-09 00:15 40.11880 -83.24928 5985 ft 259 kts 183°
2026-05-09 00:15 40.10104 -83.24525 5991 ft 269 kts 163°
2026-05-09 00:16 40.08582 -83.22972 5991 ft 285 kts 132°
2026-05-09 00:16 40.07822 -83.20551 5995 ft 297 kts 102°
2026-05-09 00:16 40.07750 -83.17859 5987 ft 300 kts 93°
2026-05-09 00:16 40.07761 -83.15125 5984 ft 300 kts 93°
2026-05-09 00:17 40.07775 -83.12402 5989 ft 300 kts 93°
2026-05-09 00:17 40.07793 -83.09689 5992 ft 300 kts 93°
2026-05-09 00:17 40.07811 -83.06945 5994 ft 296 kts 93°
2026-05-09 00:17 40.07840 -83.04364 6008 ft 277 kts 92°
2026-05-09 00:18 40.07883 -83.01900 6025 ft 259 kts 92°
2026-05-09 00:18 40.07930 -82.99593 6014 ft 256 kts 92°
2026-05-09 00:18 40.07973 -82.97258 6005 ft 256 kts 92°
2026-05-09 00:18 40.08011 -82.94943 6001 ft 256 kts 93°
2026-05-09 00:19 40.08047 -82.92613 5998 ft 256 kts 92°
2026-05-09 00:19 40.08084 -82.90282 5998 ft 256 kts 92°
2026-05-09 00:19 40.08118 -82.87950 6002 ft 256 kts 92°
2026-05-09 00:19 40.08158 -82.85641 6002 ft 257 kts 92°
2026-05-09 00:20 40.08190 -82.83298 5991 ft 256 kts 92°
2026-05-09 00:20 40.08223 -82.80972 5999 ft 256 kts 92°
2026-05-09 00:20 40.08260 -82.78661 6000 ft 256 kts 92°
2026-05-09 00:20 40.08302 -82.76324 6004 ft 256 kts 92°
2026-05-09 00:21 40.08347 -82.74032 5916 ft 250 kts 92°
2026-05-09 00:21 40.08392 -82.71732 5508 ft 254 kts 92°
2026-05-09 00:21 40.08436 -82.69453 5211 ft 252 kts 92°
2026-05-09 00:21 40.08477 -82.67183 5000 ft 247 kts 92°
2026-05-09 00:22 40.08507 -82.64922 4985 ft 252 kts 92°
2026-05-09 00:22 40.08535 -82.62614 4986 ft 252 kts 92°
2026-05-09 00:22 40.08562 -82.60345 4981 ft 252 kts 92°
2026-05-09 00:22 40.08590 -82.58064 4984 ft 252 kts 92°
2026-05-09 00:23 40.08612 -82.55758 4980 ft 251 kts 92°
2026-05-09 00:23 40.08632 -82.53492 4918 ft 247 kts 92°
2026-05-09 00:23 40.08649 -82.51270 4562 ft 248 kts 92°
2026-05-09 00:23 40.08669 -82.49023 4250 ft 246 kts 92°
2026-05-09 00:24 40.08689 -82.46802 4047 ft 239 kts 92°
2026-05-09 00:24 40.08385 -82.44772 3975 ft 223 kts 126°
2026-05-09 00:24 40.07305 -82.43465 3993 ft 205 kts 163°
2026-05-09 00:24 40.05960 -82.43372 3993 ft 194 kts 198°
2026-05-09 00:25 40.04655 -82.43876 4000 ft 194 kts 202°
2026-05-09 00:25 40.03403 -82.44460 3990 ft 190 kts 211°
2026-05-09 00:25 40.02514 -82.45698 3986 ft 187 kts 239°
2026-05-09 00:25 40.01901 -82.47175 3991 ft 187 kts 242°
2026-05-09 00:26 40.01294 -82.48693 3989 ft 187 kts 242°
2026-05-09 00:26 40.00698 -82.50200 3987 ft 187 kts 242°
2026-05-09 00:26 40.00095 -82.51717 3989 ft 188 kts 242°
2026-05-09 00:26 39.99496 -82.53214 3990 ft 187 kts 242°
2026-05-09 00:27 39.98896 -82.54728 3992 ft 187 kts 242°
2026-05-09 00:27 39.98469 -82.56326 3988 ft 189 kts 259°
2026-05-09 00:27 39.98444 -82.58053 3991 ft 186 kts 269°
2026-05-09 00:27 39.98533 -82.59678 3710 ft 179 kts 270°
2026-05-09 00:28 39.98621 -82.61310 3161 ft 183 kts 271°
2026-05-09 00:28 39.98716 -82.62963 2991 ft 186 kts 271°
2026-05-09 00:28 39.98814 -82.64586 3002 ft 167 kts 270°
2026-05-09 00:28 39.98902 -82.66052 3012 ft 162 kts 270°
2026-05-09 00:29 39.98984 -82.67451 2843 ft 152 kts 270°
2026-05-09 00:29 39.99063 -82.68840 2494 ft 153 kts 270°
2026-05-09 00:29 39.99142 -82.70249 2493 ft 160 kts 271°
2026-05-09 00:29 39.99227 -82.71716 2493 ft 161 kts 271°
2026-05-09 00:30 39.99313 -82.73182 2494 ft 161 kts 271°
2026-05-09 00:30 39.99398 -82.74635 2493 ft 161 kts 271°
2026-05-09 00:30 39.99483 -82.76101 2492 ft 161 kts 271°
2026-05-09 00:30 39.99565 -82.77502 2349 ft 148 kts 271°
2026-05-09 00:31 39.99640 -82.78729 2174 ft 123 kts 271°
2026-05-09 00:31 39.99704 -82.79798 2024 ft 117 kts 271°
2026-05-09 00:31 39.99761 -82.80852 1862 ft 113 kts 271°
2026-05-09 00:31 39.99817 -82.81885 1731 ft 114 kts 271°
2026-05-09 00:32 39.99874 -82.82911 1584 ft 114 kts 272°
2026-05-09 00:32 39.99932 -82.83940 1437 ft 115 kts 272°
2026-05-09 00:32 39.99994 -82.85008 1282 ft 117 kts 273°
2026-05-09 00:32 40.00055 -82.86067 1131 ft 118 kts 273°
2026-05-09 00:33 40.00116 -82.87146 973 ft 120 kts 273°
2026-05-09 00:33 40.00177 -82.88230 822 ft 119 kts 274°
2026-05-09 00:33 40.00229 -82.89144 816 ft 71 kts 274°
2026-05-09 00:33 40.00260 -82.89623 816 ft 34 kts 277°
2026-05-09 00:34 40.00315 -82.89707 816 ft 5 kts 355°
2026-05-09 00:34 40.00343 -82.89708 816 ft 0 kts 359°
2026-05-09 00:34 40.00347 -82.89708 816 ft 0 kts 359°
2026-05-09 00:34 40.00349 -82.89708 816 ft 0 kts 359°
2026-05-09 00:35 40.00351 -82.89708 816 ft 0 kts 359°
2026-05-09 00:35 40.00354 -82.89708 816 ft 1 kts 358°
2026-05-09 00:35 40.00355 -82.89709 816 ft 0 kts 358°
2026-05-09 00:36 40.00358 -82.89709 816 ft 0 kts 357°
2026-05-09 00:36 40.00366 -82.89713 816 ft 5 kts 317°
2026-05-09 00:36 40.00428 -82.89745 816 ft 12 kts 350°
2026-05-09 00:36 40.00507 -82.89816 816 ft 15 kts 317°
2026-05-09 00:37 40.00595 -82.89883 816 ft 13 kts 354°
2026-05-09 00:37 40.00627 -82.89951 817 ft 10 kts 236°
2026-05-09 00:37 40.00622 -82.90014 817 ft 7 kts 330°
2026-05-09 00:37 40.00637 -82.89977 817 ft 0 kts 93°